[[{"header":{"parameterUnit":"m.s-1","parameterCategory":1,"la1":30.2991,"la2":30.254,"lo1":-89.0895,"lo2":-89.0444,"dy":0.0017,"dx":0.0017,"nx":28,"ny":28,"refTime":"2026-03-03T09:00:00:Z","depth":0,"parameterNumber":2,"parameterNumberName":"U-component_of_WINDS"},"data":[0,0,0,0,0,0,0,0,0,0,0,0,0,0,0,0,0,0,0,0,0,0,0,0,0,0,0,0,0,0,0,0,0,0,0,0,0,0,0,0,0,0,0,0,0,0,0,0,0,0,0,0,0,0,0,0,0,0,-3.7527,-3.7529,0,-3.7641,-3.7643,-3.7644,-3.763,-3.7629,-3.7627,-3.7625,-3.7742,-3.7746,-3.7751,0,0,0,0,0,0,0,0,0,0,0,0,0,-3.7299,-3.7303,-3.7527,-3.7529,-3.753,-3.7641,-3.7643,-3.7644,-3.7631,-3.7628,-3.7626,-3.7624,-3.774,-3.7746,-3.7752,0,0,0,0,0,0,0,0,0,0,0,0,0,-3.7404,-3.7305,-3.7527,-3.7537,-3.7539,-3.7641,-3.7643,-3.7645,-3.7631,-3.7628,-3.7626,-3.7623,-3.7738,-3.7745,-3.7752,-3.7852,0,0,-3.7775,-3.7778,0,0,0,0,0,0,0,0,-3.7398,-3.7412,-3.7534,-3.7536,-3.7539,-3.7619,-3.7605,-3.7714,-3.7632,-3.7596,-3.7625,-3.7622,-3.7703,-3.7713,-3.774,-3.7858,-3.7863,-3.7775,-3.778,-3.7783,-3.7785,0,0,0,0,0,0,0,-3.7391,-3.7407,-3.7572,-3.7536,-3.7539,-3.7536,-3.7548,-3.7626,-3.7664,-3.7599,-3.7598,-3.7612,-3.7704,-3.7734,-3.7743,-3.7864,-3.7775,-3.7781,-3.7786,-3.7789,-3.8071,-3.8074,0,0,0,0,0,0,-3.7381,-3.7401,-3.7569,-3.7576,-3.746,-3.7542,-3.7555,-3.7596,-3.7663,-3.767,-3.7614,-3.7611,-3.7723,-3.7735,-3.7747,-3.7869,-3.7783,-3.7789,-3.7794,-3.8067,-3.8071,-3.8075,0,0,0,0,0,0,-3.7376,-3.7396,-3.7564,-3.7489,-3.751,-3.7549,-3.7595,-3.76,-3.7629,-3.7674,-3.7681,-3.7637,-3.7721,-3.7737,-3.7826,-3.7872,-3.7793,-3.7799,-3.8064,-3.8069,-3.8073,-3.8112,0,0,0,0,0,0,-3.737,-3.7394,-3.7432,-3.7489,-3.7514,-3.7641,-3.7597,-3.7604,-3.7642,-3.7638,-3.7698,-3.7705,-3.772,-3.7816,-3.7834,-3.7881,-3.7805,-3.806,-3.8066,-3.8072,-3.8107,-3.8118,-3.8127,0,0,0,0,0,-3.7362,-3.7438,-3.7434,-3.7454,-3.7562,-3.7644,-3.7658,-3.7673,-3.7645,-3.7684,-3.7713,-3.7703,-3.7865,-3.7825,-3.7845,-3.7895,-3.8057,-3.8064,-3.8071,-3.8102,-3.8116,-3.8127,0,0,0,0,0,0,-3.7385,-3.7446,-3.7442,-3.7539,-3.7587,-3.7641,-3.769,-3.7686,-3.7742,-3.7737,-3.7754,-3.7768,-3.7858,-3.7886,-3.784,-3.7996,-3.7957,-3.7969,-3.7974,-3.7987,-3.7997,-3.7988,-3.7811,0,0,0,0,0,-3.7401,-3.7463,-3.7513,-3.7594,-3.7618,-3.765,-3.7686,-3.7695,-3.7744,-3.7764,-3.78,-3.7848,-3.791,-3.795,-3.801,-3.8112,-3.8125,-3.8156,-3.8166,-3.8174,-3.8183,-3.824,-3.8255,-3.8098,-3.8098,-3.8098,0,0,-3.7436,-3.7477,-3.7514,-3.76,-3.7637,-3.7701,-3.7667,-3.7735,-3.7782,-3.7774,-3.7861,-3.7889,-3.7945,-3.8041,-3.8085,-3.8067,-3.823,-3.8183,-3.8189,-3.8194,-3.8249,-3.8264,-3.8277,-3.8103,-3.8102,-3.8101,0,0,-3.7531,-3.7568,-3.764,-3.7679,-3.7736,-3.7758,-3.7775,-3.7831,-3.785,-3.7937,-3.7933,-3.799,-3.8096,-3.8136,-3.817,-3.8283,-3.8276,-3.8303,-3.8354,-3.8409,-3.8421,-3.8432,-3.8473,-3.8487,-3.8312,-3.8312,-3.8312,0,-3.7566,-3.7661,-3.7678,-3.7747,-3.7785,-3.7782,-3.7855,-3.7892,-3.7966,-3.7993,-3.7971,-3.8106,-3.8143,-3.8249,-3.8277,-3.8305,-3.8325,-3.8295,-3.8418,-3.843,-3.844,-3.8479,-3.8494,-3.8315,-3.8314,-3.8314,-3.8314,0,-3.7702,-3.7768,-3.782,-3.7892,-3.7936,-3.8007,-3.8035,-3.8078,-3.8083,-3.8107,-3.8197,-3.8242,-3.8311,-3.8337,-3.8342,-3.8444,-3.8431,-3.8414,-3.8375,-3.8458,-3.8494,-3.8509,-3.8319,-3.8318,-3.8317,-3.8316,0,0,-3.7812,-3.7894,-3.7913,-3.7946,-3.801,-3.8062,-3.8134,-3.8202,-3.8238,-3.829,-3.8351,-3.8442,-3.8427,-3.8466,-3.8477,-3.8526,-3.8613,-3.8503,-3.8504,-3.8521,-3.8728,-3.874,-3.8757,-3.8609,-3.8612,-3.8615,-3.8724,0,-3.7913,-3.8039,-3.8058,-3.8169,-3.8231,-3.823,-3.8293,-3.834,-3.8365,-3.8421,-3.8449,-3.8513,-3.8489,-3.8513,-3.8561,-3.8592,-3.8654,-3.8584,-3.8666,-3.8669,-3.8651,-3.8776,-3.8788,-3.8889,-3.8738,-3.8741,-3.8742,0,-3.8047,-3.8103,-3.8221,-3.8279,-3.8305,-3.8361,-3.8425,-3.848,-3.8533,-3.8548,-3.8593,-3.8598,-3.8673,-3.8633,-3.8737,-3.8689,-3.8724,-3.8745,-3.8749,-3.8756,-3.8709,-3.8786,-3.8921,-3.8936,-3.8765,-3.8763,-3.8762,0,-3.8115,-3.822,-3.8305,-3.8334,-3.8403,-3.8442,-3.8473,-3.8524,-3.8564,-3.8621,-3.8647,-3.8712,-3.8747,-3.8798,-3.8821,-3.8789,-3.8924,-3.8885,-3.8939,-3.8938,-3.8965,-3.8963,-3.9107,-3.899,-3.899,-3.8989,-3.8989,0,-3.8225,-3.8297,-3.8337,-3.8388,-3.847,-3.8491,-3.8571,-3.86,-3.8646,-3.8704,-3.8708,-3.8763,-3.879,-3.8849,-3.8868,-3.8952,-3.8968,-3.8982,-3.8986,-3.8981,-3.8979,-3.9003,-3.8996,-3.8993,-3.8993,-3.8992,-3.8991,0,-3.8314,-3.8343,-3.8435,-3.8494,-3.851,-3.8568,-3.8618,-3.8669,-3.8695,-3.8768,-3.8787,-3.8827,-3.8897,-3.8925,-3.9011,-3.9024,-3.912,-3.9119,-3.9102,-3.9103,-3.9154,-3.9149,-3.9318,-3.9341,-3.9209,-3.921,-3.9211,0,-3.8381,-3.8437,-3.8502,-3.8541,-3.8573,-3.8637,-3.8678,-3.8702,-3.8745,-3.8811,-3.8854,-3.8925,-3.8981,-3.9094,-3.9131,-3.9197,-3.9197,-3.9252,-3.9207,-3.92,-3.9197,-3.9193,-3.9199,-3.9259,-3.9261,-3.9262,-3.9263,0,-3.8498,-3.851,-3.8569,-3.8635,-3.8684,-3.8737,-3.8788,-3.882,-3.8852,-3.89,-3.8972,-3.9016,-3.9105,-3.9174,-3.9243,-3.9275,-3.9275,-3.9277,-3.9293,-3.9288,-3.9275,-3.9282,-3.9123,-3.9272,-3.9271,-3.9271,-3.927,-3.927,-3.8578,-3.8627,-3.8681,-3.8748,-3.8789,-3.8837,-3.8888,-3.8921,-3.8981,-3.9055,-3.9066,-3.9142,-3.9197,-3.9289,-3.9324,-3.9385,-3.9371,-3.9394,-3.94,-3.9405,-3.9408,-3.9267,-3.9398,-3.9398,-3.9398,-3.9397,-3.9397,0,-3.8694,-3.8729,-3.879,-3.8862,-3.8915,-3.8911,-3.8968,-3.9012,-3.908,-3.9131,-3.9187,-3.927,-3.9339,-3.9382,-3.9451,-3.9492,-3.9493,-3.9509,-3.9506,-3.9513,-3.9417,-3.9396,-3.9507,-3.9507,-3.9507,-3.9507,-3.9507,-3.9507,-3.876,-3.8844,-3.8864,-3.8969,-3.9004,-3.9079,-3.9112,-3.9157,-3.9198,-3.9291,-3.9347,-3.9376,-3.9424,-3.9497,-3.956,-3.9571,-3.9596,-3.9613,-3.9623,-3.9531,-3.952,-3.9509,-3.9489,-3.9618,-3.9618,-3.9714,-3.9715,-3.9716]},{"header":{"parameterUnit":"m.s-1","parameterCategory":1,"la1":30.2991,"la2":30.254,"lo1":-89.0895,"lo2":-89.0444,"dy":0.0017,"dx":0.0017,"nx":28,"ny":28,"refTime":"2026-03-03T09:00:00:Z","depth":0,"parameterNumber":3,"parameterNumberName":"V-component_of_WINDS"},"data":[0,0,0,0,0,0,0,0,0,0,0,0,0,0,0,0,0,0,0,0,0,0,0,0,0,0,0,0,0,0,0,0,0,0,0,0,0,0,0,0,0,0,0,0,0,0,0,0,0,0,0,0,0,0,0,0,0,0,1.323,1.3231,0,1.3285,1.3286,1.3286,1.3336,1.3336,1.3337,1.3337,1.3391,1.3392,1.3393,0,0,0,0,0,0,0,0,0,0,0,0,0,1.3168,1.3169,1.323,1.3231,1.3232,1.3285,1.3286,1.3286,1.3336,1.3336,1.3337,1.3338,1.3391,1.3392,1.3393,0,0,0,0,0,0,0,0,0,0,0,0,0,1.3206,1.3169,1.323,1.3263,1.3266,1.3285,1.3286,1.3287,1.3335,1.3336,1.3337,1.3338,1.3391,1.3392,1.3393,1.3383,0,0,1.3397,1.3398,0,0,0,0,0,0,0,0,1.3204,1.3208,1.3257,1.326,1.3264,1.3305,1.3284,1.3319,1.3335,1.3309,1.3337,1.3338,1.3361,1.3365,1.3373,1.3386,1.3388,1.3397,1.3398,1.3399,1.3399,0,0,0,0,0,0,0,1.3201,1.3206,1.3252,1.3258,1.3262,1.3274,1.3281,1.329,1.3329,1.3311,1.3315,1.3321,1.3364,1.3372,1.3375,1.3389,1.3397,1.3398,1.3399,1.34,1.3399,1.3398,0,0,0,0,0,0,1.3194,1.3204,1.325,1.3254,1.3236,1.3275,1.3282,1.3291,1.333,1.3336,1.332,1.3323,1.3369,1.3373,1.3377,1.337,1.3399,1.34,1.3401,1.3399,1.3399,1.3398,0,0,0,0,0,0,1.3192,1.3197,1.3248,1.323,1.3237,1.3275,1.3284,1.3291,1.33,1.3336,1.3343,1.3322,1.337,1.3375,1.3382,1.3372,1.34,1.3402,1.34,1.3399,1.3398,1.3354,0,0,0,0,0,0,1.319,1.3196,1.3193,1.3229,1.3238,1.3252,1.3284,1.3292,1.3302,1.3307,1.334,1.3346,1.3371,1.338,1.3383,1.3375,1.3403,1.3401,1.34,1.3398,1.3357,1.3352,1.3347,0,0,0,0,0,1.3188,1.3177,1.3193,1.3198,1.3234,1.3251,1.3256,1.3286,1.3301,1.3298,1.3322,1.3345,1.3373,1.338,1.3385,1.3376,1.3402,1.34,1.3399,1.3359,1.3353,1.3347,0,0,0,0,0,0,1.3138,1.3183,1.32,1.3201,1.3222,1.326,1.3257,1.3278,1.3295,1.3298,1.3334,1.3341,1.3345,1.3361,1.3368,1.337,1.3391,1.339,1.3359,1.3353,1.3349,1.3345,1.3404,0,0,0,0,0,1.3127,1.3137,1.3176,1.3173,1.3183,1.3218,1.3226,1.3248,1.3271,1.328,1.3304,1.3325,1.3339,1.3347,1.3362,1.3359,1.3368,1.3356,1.3351,1.3347,1.3346,1.3348,1.3343,1.3392,1.3392,1.3392,0,0,1.3104,1.313,1.3134,1.3164,1.3183,1.3193,1.3225,1.3234,1.3242,1.3281,1.329,1.3308,1.3334,1.3337,1.3339,1.3351,1.3335,1.3345,1.3341,1.3342,1.3345,1.3341,1.3337,1.339,1.3391,1.3391,0,0,1.3069,1.3089,1.309,1.3109,1.3138,1.3162,1.3162,1.3197,1.3211,1.322,1.3251,1.3261,1.3283,1.3301,1.3313,1.3287,1.3309,1.3291,1.3266,1.3268,1.3264,1.3261,1.3253,1.3249,1.3289,1.3289,1.3289,0,1.3037,1.3054,1.3088,1.3096,1.3108,1.3146,1.3148,1.3164,1.3195,1.3203,1.3216,1.3247,1.3267,1.3275,1.3269,1.3277,1.3279,1.3287,1.3262,1.3259,1.3256,1.3249,1.3246,1.3287,1.3287,1.3287,1.3288,0,1.3014,1.3026,1.3023,1.3054,1.3067,1.3071,1.3106,1.3114,1.3135,1.3158,1.3168,1.3194,1.3215,1.3219,1.3239,1.3231,1.3237,1.3255,1.3277,1.3249,1.3243,1.324,1.3284,1.3284,1.3285,1.3286,0,0,1.2947,1.2999,1.2998,1.3013,1.3049,1.3058,1.3065,1.3087,1.3094,1.3115,1.3122,1.3142,1.316,1.3174,1.3196,1.3197,1.3177,1.3216,1.3217,1.3208,1.3171,1.3158,1.3154,1.3192,1.3192,1.3191,1.317,0,1.2918,1.2934,1.2965,1.297,1.2982,1.3019,1.3025,1.3048,1.307,1.3083,1.3106,1.312,1.3142,1.3151,1.3154,1.3179,1.317,1.3181,1.3199,1.32,1.3192,1.3151,1.3136,1.3114,1.3167,1.3167,1.3167,0,1.2886,1.2907,1.2913,1.2951,1.2957,1.2962,1.2986,1.2997,1.3024,1.304,1.3057,1.3082,1.3092,1.3112,1.3127,1.3134,1.3143,1.3157,1.3157,1.316,1.3181,1.3153,1.3108,1.3105,1.3163,1.3163,1.3163,0,1.2838,1.2867,1.2876,1.2888,1.2931,1.2934,1.2952,1.298,1.2992,1.3013,1.3021,1.3042,1.3054,1.307,1.3101,1.3113,1.3113,1.3135,1.3126,1.3126,1.3125,1.3124,1.3081,1.313,1.313,1.313,1.313,0,1.2803,1.2806,1.2855,1.286,1.2865,1.2902,1.2906,1.2927,1.2952,1.2962,1.2995,1.3004,1.3044,1.3058,1.3082,1.3091,1.3096,1.3109,1.3116,1.3107,1.3105,1.3114,1.3116,1.3129,1.3129,1.3129,1.313,0,1.275,1.2783,1.2795,1.2835,1.2846,1.2848,1.2882,1.2889,1.2914,1.2926,1.2931,1.2969,1.2988,1.302,1.3047,1.3063,1.3068,1.3079,1.3059,1.3063,1.3053,1.3054,1.3014,1.3011,1.3061,1.306,1.306,0,1.2725,1.2729,1.277,1.278,1.2797,1.2812,1.2825,1.2862,1.2874,1.2907,1.291,1.2931,1.2949,1.2977,1.3007,1.3028,1.304,1.3024,1.3043,1.3034,1.3041,1.304,1.3042,1.302,1.3019,1.3019,1.3018,0,1.2678,1.2695,1.2713,1.2737,1.2753,1.2773,1.2795,1.2801,1.2843,1.2855,1.2875,1.289,1.2918,1.2939,1.2965,1.2984,1.3008,1.3012,1.3012,1.3002,1.2991,1.2998,1.3048,1.3013,1.3013,1.3014,1.3014,1.3014,1.264,1.2645,1.2676,1.2695,1.2716,1.2737,1.2746,1.2772,1.279,1.2817,1.2837,1.2855,1.2884,1.2922,1.2939,1.2955,1.2966,1.2964,1.2964,1.2963,1.296,1.2989,1.2959,1.2959,1.296,1.296,1.296,0,1.2596,1.2618,1.2635,1.2666,1.2682,1.2705,1.2731,1.2743,1.2759,1.2784,1.2802,1.2826,1.2846,1.2879,1.2902,1.2908,1.292,1.2913,1.2914,1.2918,1.2948,1.2947,1.2904,1.2904,1.2904,1.2904,1.2904,1.2904,1.2575,1.2586,1.2607,1.2629,1.2651,1.267,1.2684,1.2703,1.2724,1.2749,1.2767,1.2788,1.2817,1.2843,1.2863,1.2872,1.288,1.287,1.2882,1.291,1.2915,1.292,1.2919,1.2871,1.2871,1.2851,1.285,1.285]}]]